{"data":{"norad_id":47321,"intl_designator":"2021-003A","name":"TIANTONG-1 3","alt_names":[],"object_type":"PAYLOAD","status":"ACTIVE","operator":null,"country":"PRC","launch_date":"2021-01-19","launch_site_code":"XICLF","launch_vehicle":null,"mission":null,"orbit_class":"UNKNOWN","rcs_meters":null,"size_class":null,"mass_kg":null,"dimensions":null,"purposes":["comms"],"wikipedia_slug":null,"has_3d_model":false,"image_url":null,"decayed_at":null,"tle_current":{"epoch":"2026-05-25T02:25:07.936320Z","epoch_age_seconds":73089,"freshness":"FRESH","line1":"1 47321U 21003A   26145.10078630 -.00000159  00000+0  00000+0 0  9990","line2":"2 47321   1.7751 337.9674 0003255  87.5628 294.9613  1.00269871 19738","mean_motion":1.00269871,"eccentricity":0.0003255,"inclination_deg":1.7751,"raan_deg":337.9674,"arg_perigee_deg":87.5628,"mean_anomaly_deg":294.9613,"bstar":0,"rev_number":1973,"period_min":1436.1243169446,"perigee_km":35773.406738498,"apogee_km":35800.856328314,"semimajor_km":42165.268533406,"source":"CELESTRAK","updated_at":"2026-05-25T13:38:14.098711Z"}}}